Wind_Speed
45 45 46 47 48 49 50 50 51 51 52 52 53 53 53 53 53 52 52 53 53 53 53 54 54 53 54 54 54 55 55 55 55 54 54 54 55 54 54 55 55 55 55
45 46 46 47 48 49 50 51 51 51 52 52 52 52 53 53 52 52 52 52 53 53 53 53 54 54 54 54 54 55 55 54 55 54 54 55 56 56 56 56 57 57 57
45 46 46 47 48 48 49 50 51 52 52 53 53 53 54 54 54 53 53 53 53 54 54 55 55 55 55 55 54 54 54 54 55 56 55 56 56 57 57 57 58 58 59
44 45 46 46 47 48 49 50 51 51 52 53 54 54 55 55 56 55 55 55 55 55 55 56 56 56 55 54 54 54 55 55 56 56 56 56 57 58 58 58 58 59 59
44 45 45 46 46 47 48 49 50 51 52 53 54 54 54 55 56 56 57 57 57 57 57 56 56 55 54 54 54 55 55 55 56 56 56 57 58 58 58 57 58 58 59
43 44 44 44 46 46 47 48 49 50 51 52 53 53 54 54 54 55 56 57 57 57 57 56 55 55 55 55 54 55 56 56 56 56 57 57 56 57 57 57 58 59 59
42 43 44 44 45 45 46 47 48 49 50 51 52 52 52 53 53 54 54 55 55 55 54 54 53 53 53 53 54 55 55 56 57 57 56 55 55 55 56 57 57 58 58
41 43 44 45 45 45 46 47 48 49 50 51 51 51 52 52 53 53 52 53 53 53 52 52 53 53 53 53 53 54 55 55 55 55 55 54 54 55 55 56 57 57 57
41 42 43 45 45 46 47 47 48 49 49 50 51 51 52 52 53 53 53 52 52 52 52 52 53 53 52 52 53 53 54 54 54 55 55 54 54 55 55 55 56 56 56
40 41 41 42 43 44 45 46 47 48 49 49 50 50 50 50 51 51 51 51 51 51 52 52 52 52 52 52 52 52 53 53 53 53 54 54 54 54 55 55 55 55 56
39 40 41 41 42 43 43 44 45 46 47 48 49 49 49 49 49 49 50 50 50 50 50 51 51 51 51 51 51 51 51 51 51 51 51 51 51 51 52 53 53 54 54
38 39 39 40 40 41 41 41 43 44 45 45 46 47 48 48 48 48 49 50 50 50 50 50 50 50 51 50 50 50 50 50 49 49 49 49 49 49 49 50 51 52 52
35 36 37 38 38 38 39 39 40 41 42 43 44 45 46 47 48 48 49 50 50 50 50 50 50 50 50 49 49 49 49 49 49 48 47 48 48 48 48 49 49 50 50
34 34 35 35 36 37 37 38 39 40 41 42 42 43 44 45 46 47 48 49 49 49 49 49 49 49 48 48 48 48 47 47 47 47 46 47 47 47 47 47 48 48 48
33 33 34 34 35 35 36 36 37 38 39 40 40 42 42 43 45 46 47 47 47 48 48 48 48 48 47 47 47 47 47 47 47 46 46 46 46 46 46 46 46 46 46
33 34 34 34 35 35 35 35 36 37 37 38 38 39 40 42 43 44 45 46 46 46 46 46 46 46 46 46 46 46 46 46 46 46 46 46 46 45 45 45 45 45 45
34 34 34 34 35 35 35 35 36 36 37 38 38 39 39 40 41 42 43 43 44 45 45 45 45 45 45 45 45 45 44 45 45 45 45 44 44 44 44 44 44 44 45
35 35 35 35 35 35 35 36 36 36 37 37 38 39 39 39 39 39 40 41 41 42 43 43 43 44 44 44 44 44 44 44 44 44 44 44 44 44 44 44 44 44 44
34 35 35 35 36 36 36 36 36 36 37 37 37 37 37 37 37 36 37 38 39 40 40 41 41 42 42 42 43 43 43 43 43 44 44 44 43 43 43 42 42 43 43
33 34 34 35 35 35 36 36 36 36 36 36 35 35 35 34 34 34 34 35 36 36 37 37 38 38 39 40 40 40 40 41 41 41 42 42 41 41 41 41 41 42 42
33 33 33 34 34 34 35 35 34 34 34 34 33 33 32 32 32 32 32 33 33 34 34 35 36 36 37 37 38 38 38 39 39 39 40 41 41 41 41 41 41 41 41
32 32 32 33 33 33 33 33 32 32 32 32 32 31 31 31 31 31 31 32 32 33 33 33 34 35 35 36 36 37 37 38 39 39 39 39 40 40 40 39 39 39 39
32 32 32 32 32 32 32 32 32 32 31 31 31 30 31 31 31 31 31 31 31 31 31 31 32 33 33 34 35 35 36 37 37 38 38 38 38 39 38 38 37 37 37
32 32 31 31 32 32 32 32 32 32 31 31 31 30 30 30 31 31 31 31 31 30 30 30 30 31 31 32 33 33 34 35 35 35 36 36 36 35 35 35 35 35 35
32 32 31 32 32 31 31 30 30 30 30 30 30 30 29 29 29 30 30 30 30 30 30 30 30 30 30 31 31 31 32 32 33 33 34 33 33 33 33 33 34 34 34
32 32 32 32 32 31 31 30 30 29 29 29 28 28 28 28 28 28 28 28 28 29 29 29 29 29 29 29 30 30 30 30 31 32 32 32 32 32 32 32 32 32 32
Wind_Direction
258 258 258 257 257 256 255 255 256 256 256 257 257 257 258 258 259 259 260 261 262 263 264 264 264 264 265 265 264 264 263 262 261 260 260 261 261 261 261 262 261 261 260
259 259 259 259 257 256 256 255 256 257 258 258 258 259 259 259 259 259 260 262 263 264 265 266 266 266 266 265 265 264 263 263 262 261 261 261 262 262 262 263 262 261 261
261 260 261 260 259 258 256 256 256 257 258 258 259 259 260 260 260 260 261 262 264 265 266 266 266 266 266 266 265 264 263 262 262 262 261 261 263 263 263 263 263 262 261
262 262 262 262 261 259 258 257 257 257 258 259 259 260 261 261 261 261 262 262 264 264 265 266 266 266 265 264 264 263 263 263 263 262 262 262 263 264 264 263 262 262 261
263 262 263 263 264 263 262 260 259 259 260 260 260 261 261 262 262 263 263 263 263 264 265 265 265 265 264 263 263 263 263 263 262 263 263 263 263 264 264 263 263 262 261
264 264 264 265 265 265 264 264 262 261 261 261 261 262 262 263 263 264 264 264 264 264 264 264 264 264 263 262 263 263 263 263 264 264 263 264 264 264 264 264 263 263 262
266 265 265 266 266 266 266 264 263 263 262 262 262 263 263 263 264 264 264 264 264 264 264 264 264 263 263 262 263 263 264 265 265 264 264 264 264 264 264 264 264 263 262
268 268 268 267 267 267 267 266 266 265 263 263 263 263 264 264 264 264 264 264 263 263 263 264 264 263 263 263 263 263 264 264 264 264 263 263 263 264 264 264 263 263 263
269 269 269 269 268 268 268 268 266 265 264 264 264 264 264 265 265 265 264 264 263 263 263 263 263 263 263 264 264 264 264 264 264 264 263 263 263 264 264 265 264 264 263
271 270 270 270 270 269 269 269 267 267 266 265 265 265 265 265 265 265 264 264 264 263 263 263 262 263 264 264 264 264 264 264 264 264 264 264 265 265 265 265 265 264 264
273 273 273 272 271 271 271 269 268 268 268 267 266 265 264 264 264 264 264 264 264 264 263 263 263 264 265 264 264 264 264 264 264 264 265 265 265 265 265 265 266 265 265
275 274 274 274 273 273 272 271 270 269 269 268 267 266 265 264 264 264 264 264 264 264 264 263 263 263 263 263 263 263 263 263 263 264 264 264 265 266 266 266 266 267 265
276 276 275 274 274 274 273 272 272 272 271 270 269 267 266 264 264 264 264 265 265 264 264 263 263 262 263 263 263 262 262 263 263 263 263 264 265 266 266 267 267 267 266
278 278 277 276 275 274 274 274 274 274 273 272 271 269 267 265 265 264 264 265 265 264 264 263 263 263 263 262 261 261 261 262 263 263 263 264 264 265 266 267 267 266 266
280 279 278 277 276 276 276 276 276 276 275 273 272 270 268 267 266 266 265 265 264 264 263 263 262 262 262 262 262 261 262 262 263 263 263 264 265 265 266 266 266 266 266
281 280 280 279 277 277 277 277 277 278 277 275 274 273 272 270 268 267 265 264 263 263 263 262 262 262 261 261 261 261 261 261 262 262 262 263 264 265 265 266 266 267 266
282 281 280 280 279 278 278 278 279 279 278 277 276 276 275 272 270 267 265 264 263 263 262 262 262 261 261 261 261 261 261 261 261 261 262 263 264 265 265 266 267 267 266
282 281 281 281 280 280 279 279 279 279 279 278 277 276 275 274 272 269 266 264 263 262 262 262 262 262 261 261 261 261 261 261 261 260 261 261 262 264 265 266 267 267 267
285 284 283 283 282 281 281 280 279 279 279 278 278 277 276 274 272 270 267 265 264 263 262 261 261 262 262 261 261 261 260 260 259 259 259 260 261 263 264 265 266 267 267
287 286 285 285 284 283 282 281 280 279 279 278 277 276 275 273 271 269 268 267 265 264 263 262 262 262 262 261 261 260 260 259 259 258 258 259 260 262 263 265 266 267 268
289 288 288 287 287 286 285 283 282 281 280 278 277 275 274 272 271 270 269 267 266 265 264 264 263 263 262 261 260 259 258 258 258 259 259 259 260 262 263 265 266 267 268
290 289 289 288 287 287 287 285 284 283 282 280 278 276 274 272 271 269 269 268 266 265 265 265 264 263 262 261 260 260 259 260 260 260 259 259 260 261 263 265 266 267 268
289 288 288 288 288 288 287 286 284 283 283 282 280 278 276 274 272 271 270 269 268 267 266 265 264 263 263 262 262 261 260 260 260 260 259 260 260 261 263 264 265 267 268
288 287 287 287 288 288 288 286 285 284 284 283 281 279 277 275 273 271 270 269 269 268 268 266 265 264 264 263 262 261 261 260 260 260 259 259 260 261 263 264 265 267 269
286 286 286 286 287 287 287 287 286 285 284 283 281 279 278 276 274 273 271 270 270 269 269 268 267 266 265 264 263 262 262 261 260 260 260 259 260 261 262 264 266 267 269
285 285 285 286 286 285 285 285 285 285 285 283 281 279 278 277 275 274 273 272 271 271 270 269 268 266 265 264 264 264 263 262 261 261 260 260 260 261 262 264 265 267 269
Height
5601 5602 5603 5604 5605 5606 5607 5608 5609 5611 5612 5613 5614 5615 5617 5618 5619 5620 5620 5621 5621 5622 5622 5623 5623 5623 5623 5623 5623 5625 5626 5628 5631 5633 5634 5635 5636 5638 5639 5641 5643 5644 5646
5588 5589 5590 5590 5591 5592 5593 5595 5596 5597 5598 5599 5600 5601 5602 5603 5604 5605 5606 5606 5607 5607 5607 5608 5608 5608 5608 5608 5609 5610 5611 5612 5615 5618 5620 5620 5622 5623 5624 5626 5628 5629 5631
5575 5576 5576 5577 5577 5578 5579 5580 5582 5583 5583 5584 5585 5586 5587 5588 5589 5590 5591 5591 5592 5592 5592 5593 5593 5593 5593 5593 5594 5595 5596 5597 5599 5602 5604 5605 5607 5607 5609 5611 5612 5614 5616
5562 5563 5563 5563 5564 5565 5565 5566 5567 5568 5569 5570 5571 5572 5572 5573 5574 5575 5575 5576 5576 5576 5577 5577 5577 5578 5578 5578 5579 5580 5581 5582 5584 5586 5589 5590 5591 5592 5593 5595 5596 5597 5599
5550 5550 5550 5550 5550 5551 5551 5552 5553 5553 5554 5555 5556 5556 5557 5558 5559 5559 5560 5560 5561 5561 5561 5561 5562 5562 5563 5563 5564 5565 5566 5568 5569 5570 5572 5574 5576 5576 5577 5578 5580 5581 5583
5537 5537 5538 5538 5538 5537 5538 5538 5538 5539 5540 5540 5541 5541 5542 5543 5543 5544 5544 5545 5545 5545 5546 5546 5546 5547 5547 5548 5549 5551 5552 5553 5554 5555 5557 5558 5560 5560 5561 5562 5563 5565 5567
5525 5525 5525 5525 5525 5524 5524 5524 5524 5524 5525 5525 5526 5527 5527 5528 5528 5528 5528 5529 5529 5530 5531 5531 5531 5532 5532 5533 5534 5536 5537 5537 5538 5540 5542 5543 5544 5545 5545 5546 5547 5548 5550
5512 5512 5511 5511 5511 5511 5510 5510 5510 5510 5510 5511 5511 5512 5512 5513 5513 5513 5513 5513 5514 5515 5516 5516 5517 5517 5518 5519 5520 5521 5522 5523 5523 5524 5526 5528 5528 5528 5529 5530 5530 5531 5533
5500 5499 5499 5498 5497 5497 5496 5496 5495 5495 5496 5496 5496 5497 5497 5498 5497 5498 5497 5498 5499 5500 5501 5502 5502 5503 5504 5504 5505 5507 5507 5507 5507 5508 5510 5511 5511 5512 5512 5513 5514 5515 5517
5488 5487 5486 5484 5484 5483 5482 5481 5481 5481 5481 5481 5482 5482 5482 5483 5482 5482 5482 5484 5485 5486 5487 5487 5488 5488 5489 5489 5490 5491 5492 5493 5493 5493 5494 5495 5495 5496 5496 5497 5498 5499 5500
5475 5474 5473 5471 5470 5469 5468 5467 5467 5467 5467 5467 5467 5467 5468 5468 5468 5468 5468 5469 5470 5471 5472 5473 5473 5474 5474 5474 5475 5476 5477 5477 5477 5478 5478 5479 5480 5480 5480 5481 5481 5482 5483
5463 5462 5460 5458 5457 5456 5455 5454 5453 5452 5452 5452 5452 5452 5452 5452 5452 5453 5453 5454 5455 5456 5457 5458 5459 5459 5459 5459 5460 5461 5462 5462 5463 5463 5464 5464 5465 5465 5465 5465 5466 5466 5467
5451 5450 5448 5447 5445 5443 5442 5441 5440 5439 5438 5437 5437 5437 5438 5438 5438 5438 5438 5439 5440 5441 5442 5443 5443 5444 5444 5444 5445 5446 5447 5447 5448 5449 5450 5450 5451 5451 5451 5451 5451 5451 5452
5440 5438 5437 5435 5433 5432 5430 5429 5427 5426 5425 5424 5423 5423 5423 5423 5423 5423 5423 5424 5425 5425 5426 5427 5428 5428 5429 5430 5431 5432 5433 5434 5434 5435 5436 5436 5436 5437 5437 5437 5437 5437 5438
5429 5428 5426 5424 5422 5421 5419 5417 5415 5414 5412 5411 5410 5409 5409 5409 5408 5408 5408 5409 5409 5410 5411 5412 5413 5414 5415 5416 5417 5418 5419 5419 5420 5421 5422 5422 5422 5423 5423 5423 5423 5424 5424
5419 5417 5415 5413 5411 5410 5408 5406 5403 5402 5400 5398 5397 5396 5395 5394 5394 5393 5393 5394 5394 5395 5396 5397 5398 5399 5401 5402 5403 5404 5405 5405 5406 5407 5408 5408 5409 5409 5409 5409 5410 5410 5410
5408 5406 5404 5402 5400 5398 5397 5395 5393 5391 5388 5386 5385 5383 5382 5381 5380 5379 5379 5379 5380 5381 5382 5383 5384 5385 5386 5387 5388 5389 5390 5391 5392 5393 5394 5395 5395 5396 5396 5396 5396 5396 5397
5397 5395 5393 5391 5389 5387 5385 5383 5381 5379 5377 5375 5373 5371 5369 5367 5366 5366 5366 5366 5366 5367 5368 5369 5370 5371 5372 5373 5374 5375 5376 5377 5378 5379 5380 5381 5382 5382 5382 5383 5383 5383 5383
5386 5384 5381 5379 5377 5375 5373 5371 5369 5367 5365 5363 5361 5358 5356 5355 5354 5353 5353 5353 5353 5354 5355 5355 5356 5357 5358 5359 5360 5361 5362 5363 5364 5365 5366 5367 5368 5369 5369 5370 5370 5370 5370
5375 5373 5370 5368 5366 5363 5361 5359 5357 5355 5353 5351 5349 5347 5345 5343 5343 5342 5341 5341 5341 5341 5342 5343 5343 5344 5344 5345 5346 5347 5348 5349 5350 5351 5353 5354 5355 5355 5356 5356 5357 5357 5357
5365 5362 5359 5357 5354 5352 5349 5347 5345 5343 5341 5339 5337 5335 5334 5333 5332 5331 5330 5330 5330 5330 5330 5331 5331 5331 5332 5332 5333 5334 5335 5336 5337 5338 5339 5341 5342 5342 5343 5343 5344 5344 5344
5354 5351 5349 5346 5344 5341 5339 5336 5334 5332 5330 5328 5326 5325 5323 5322 5321 5321 5320 5319 5319 5319 5319 5319 5319 5320 5320 5321 5321 5322 5323 5324 5325 5326 5327 5328 5329 5330 5330 5331 5331 5332 5332
5343 5341 5339 5336 5333 5331 5329 5326 5324 5322 5319 5317 5316 5314 5313 5311 5311 5310 5310 5309 5308 5308 5308 5308 5308 5308 5309 5309 5310 5310 5311 5312 5313 5314 5315 5316 5317 5318 5318 5319 5319 5319 5319
5333 5330 5328 5326 5323 5321 5318 5316 5314 5311 5309 5307 5305 5304 5302 5301 5300 5299 5299 5298 5298 5298 5298 5298 5298 5298 5298 5298 5299 5299 5300 5300 5301 5302 5303 5304 5305 5306 5307 5307 5308 5308 5308
5322 5320 5318 5316 5313 5311 5308 5306 5304 5301 5299 5297 5295 5294 5292 5291 5290 5289 5289 5288 5288 5288 5288 5287 5287 5287 5287 5288 5288 5288 5289 5289 5290 5291 5292 5293 5294 5295 5296 5296 5297 5297 5297
5311 5309 5307 5305 5303 5300 5298 5296 5294 5292 5290 5287 5286 5284 5283 5281 5280 5279 5279 5278 5278 5278 5278 5277 5277 5277 5277 5278 5278 5278 5278 5279 5279 5280 5282 5283 5284 5285 5286 5286 5287 5287 5287